FENGYUN 2H

Last updated on Thu Nov 21 2024 00:02:20 GMT+0000 (Coordinated Universal Time)

1 43491U 18050A 24325.09653941 -.00000126 00000+0 00000+0 0 9996 2 43491 1.5471 85.7605 0001441 153.0926 294.5703 1.00275236 23683
UTC large
Height (km)
Speed (km/s)
/
Latitude / Longitude
Inclination (degrees)
Orbital Period (minutes)
Azimuth
Elevation
Range (km)
Doppler Factor

Next 0 passes for location: London (51.5072 / 0.1276)

Sorry there are no passes over London.